Skip Page Navigation
NASA JPL Caltech
NASA Logo - Jet Propulsion Laboratory + View the NASA Portal
+ Center for Near-Earth Object Studies
JPL Home Earth Solar System Stars & Galaxies Technology
JPL Solar System Dynamics
BODIES ORBITS EPHEMERIDES TOOLS PHYSICAL DATA DISCOVERY FAQ SITE MAP
JPL Small-Body Database Browser
Search: [ help ]  
14845 Hegel (1988 VS6)
Classification: Outer Main-belt Asteroid          SPK-ID: 2014845
Ephemeris | Orbit Diagram | Orbital Elements | Mission Design | Physical Parameters | Discovery Circumstances | Close-Approach Data ]

[ show orbit diagram ]
Orbital Elements at Epoch 2459200.5 (2020-Dec-17.0) TDB
Reference: JPL 31 (heliocentric ecliptic J2000)
 Element Value Uncertainty (1-sigma)   Units 
e .2402726867657038 3.6031e-08  
a 3.951725732340685 2.4317e-08 au
q 3.00223397327002 1.4618e-07 au
i 4.901056053483263 4.5408e-06 deg
node 209.127515334918 4.7787e-05 deg
peri 210.1940522334411 4.8848e-05 deg
M 12.08648572135085 8.4991e-06 deg
tp 2459104.166761199798
(2020-Sep-11.66676120)
6.7513e-05 TDB
period 2869.317580610749
7.86
2.6484e-05
7.251e-08
d
yr
n .1254653728233778 1.1581e-09 deg/d
Q 4.901217491411349 3.016e-08 au
  Orbit Determination Parameters
   # obs. used (total)      1316  
   data-arc span      25630 days (70.17 yr)  
   first obs. used      1951-01-04  
   last obs. used      2021-03-07  
   planetary ephem.      DE441  
   SB-pert. ephem.      SB441-N16  
   condition code      0  
   norm. resid. RMS      .48239  
   source      ORB  
   producer      Otto Matic  
   solution date      2021-Apr-13 00:40:37  

Additional Information
 Earth MOID = 2.01533 au 
 Jupiter MOID = .497138 au 
 T_jup = 3.002 
[ show covariance matrix ]

Ephemeris | Orbit Diagram | Orbital Elements | Mission Design | Physical Parameters | Discovery Circumstances | Close-Approach Data ]

Physical Parameter Table
Parameter Symbol Value Units Sigma Reference Notes
absolute magnitude H 13.0   n/a MPO452380  
diameter diameter 13.908 km 0.825 urn:nasa:pds:neowise_diameters_albedos::2.0[hildas] (http://adsabs.harvard.edu/abs/2012ApJ...744..197G)  
geometric albedo albedo 0.058   0.013 urn:nasa:pds:neowise_diameters_albedos::2.0[hildas] (http://adsabs.harvard.edu/abs/2012ApJ...744..197G)  

14845 Hegel           Discovered 1988 Nov. 3 by F. Borngen at Tautenburg.
Georg Wilhelm Friedrich Hegel (1770-1831) is a very important philosopher of German idealism. The method and content of his thinking is the dialectic. He lectured at Jena during 1801--1807. He had great influence during the nineteenth and twentieth centuries, and many later philosophers refer to him.
NOTE: some special characters may not display properly (any characters within {} are an attempt to place the proper accent above a character)
Reference: 20000726/MPCPages.arcLast Updated: 2013-03-29

[ show close-approach data ]
Alternate Designations
 1988 VS6 = 1996 SC4 
Ephemeris | Orbit Diagram | Orbital Elements | Mission Design | Physical Parameters | Discovery Circumstances | Close-Approach Data ]
ABOUT SSD CREDITS/AWARDS PRIVACY/COPYRIGHT GLOSSARY LINKS
FirstGov 2021-Apr-19 12:29 UT
(server date/time)  
NASA Home Page
Site Manager:   Ryan S. Park
Webmaster  Alan B. Chamberlin